GFSWCAN_prec_precacc_138.txt.gz
Total_Precipitation_Accumulation
1.66 1.71 1.64 1.46 1.62 1.36 1.11 0.90 0.88 0.86 0.83 0.76 0.71 0.88 0.85 0.93 1.46 2.47 2.41 1.57 1.67 1.45 0.41 0.29 0.15 0.08 0.05 0.10 0.32 0.38 0.53 0.56 0.68 0.81 0.63 0.43 0.23 0.21 0.31 0.48 0.55 0.50 0.64 0.59 0.52 0.50 0.35 0.10 0.17 0.45 0.45 0.29 0.80 1.34
1.63 1.63 1.33 1.22 1.31 1.33 1.27 1.01 0.93 0.77 0.73 0.80 0.65 0.72 0.71 0.78 1.18 2.12 3.14 2.27 1.49 2.00 0.93 0.32 0.24 0.09 0.04 0.03 0.19 0.48 0.49 0.52 0.43 0.51 0.50 0.37 0.31 0.30 0.23 0.45 0.75 0.78 0.58 0.55 0.43 0.47 0.29 0.07 0.15 0.24 0.18 0.36 0.81 1.00
1.46 1.42 1.38 1.18 1.10 1.07 1.09 1.16 1.13 0.96 0.71 0.73 0.69 0.67 0.68 0.73 1.10 1.64 2.76 2.12 2.74 3.00 2.16 0.51 0.34 0.20 0.10 0.03 0.12 0.43 0.32 0.61 0.86 0.67 0.76 0.59 0.59 0.39 0.35 0.42 0.73 0.63 0.47 0.57 0.31 0.21 0.12 0.10 0.09 0.08 0.10 0.16 0.79 0.73
1.34 1.31 1.32 1.36 1.09 0.94 0.79 1.04 1.32 1.15 0.99 0.71 0.72 0.68 0.74 0.90 1.09 1.40 2.14 2.32 3.11 3.42 2.47 0.85 0.19 0.23 0.20 0.09 0.10 0.15 0.16 0.35 0.59 0.78 0.89 0.78 0.47 0.26 0.33 0.27 0.46 1.00 1.06 0.73 0.47 0.24 0.26 0.15 0.12 0.18 0.25 0.37 0.41 0.61
1.27 1.34 1.43 1.36 1.16 0.96 0.84 0.99 1.35 1.29 1.25 1.00 0.86 0.84 1.04 1.30 1.22 1.40 1.73 1.94 2.54 2.10 1.65 0.97 0.51 0.16 0.33 0.27 0.26 0.18 0.23 0.35 0.62 0.92 0.78 0.53 0.19 0.25 0.18 0.26 0.79 0.82 1.22 1.12 1.08 0.59 0.69 0.35 0.40 0.54 0.43 0.34 0.48 0.36
1.30 1.13 1.16 1.26 1.16 1.11 1.01 1.16 1.28 1.31 1.15 1.39 1.14 1.23 1.39 1.47 1.92 2.73 3.68 2.52 1.84 1.76 2.61 1.62 0.82 0.32 0.46 0.52 0.48 0.63 0.32 0.53 0.73 0.90 0.60 0.41 0.29 0.47 0.48 0.28 0.33 0.34 0.82 1.27 1.49 1.00 0.96 0.76 0.57 0.26 0.36 0.47 0.50 0.47
1.07 0.93 1.09 1.11 1.09 1.19 1.20 1.14 1.35 1.15 1.25 1.61 1.63 1.35 1.27 2.01 2.72 3.10 2.14 1.45 1.16 2.03 3.39 2.01 0.94 0.47 0.59 0.68 0.54 0.91 0.82 1.02 0.93 1.00 0.74 0.32 0.26 0.73 0.65 0.22 0.08 0.22 0.34 0.69 1.35 1.52 1.62 1.19 1.21 0.86 0.42 0.31 0.36 0.18
1.10 0.94 0.96 0.97 0.96 0.95 1.19 1.32 1.48 1.52 1.52 1.75 1.68 1.49 1.95 3.22 3.48 2.23 1.06 1.56 1.78 2.33 2.55 2.12 1.19 1.06 0.94 1.17 0.74 0.62 0.93 1.43 1.38 1.13 0.66 0.50 0.42 0.62 0.60 0.09 0.01 0.03 0.08 0.20 0.24 0.25 0.65 0.70 0.51 0.46 0.23 0.09 0.07 0.10
0.93 0.83 0.98 0.89 0.81 0.84 0.97 1.18 1.53 1.96 1.98 2.56 2.85 2.97 4.35 5.34 4.04 1.78 1.44 2.40 2.32 2.79 2.29 1.22 0.94 1.45 1.32 1.40 1.16 0.84 0.87 1.52 1.22 0.97 0.63 0.63 0.65 0.61 0.31 0.15 0.11 0.04 0.03 0.02 0.01 0.02 0.04 0.05 0.05 0.07 0.11 0.12 0.17 0.16
1.04 0.91 1.03 0.93 0.87 0.90 1.04 1.27 1.86 2.77 3.69 4.55 5.04 5.78 6.08 3.69 1.95 2.13 3.74 3.91 3.31 2.51 1.61 0.80 0.63 1.34 1.58 1.25 1.46 1.64 1.50 1.15 1.09 0.54 0.55 0.65 0.51 0.44 0.29 0.24 0.16 0.08 0.03 0.02 0.02 0.03 0.03 0.03 0.05 0.08 0.14 0.16 0.12 0.08
1.09 1.07 0.99 0.93 1.01 1.15 1.44 1.78 2.53 4.20 5.60 5.45 4.95 4.01 3.19 2.45 2.44 2.95 3.63 2.72 1.92 1.03 0.51 0.41 0.49 0.90 1.21 1.28 1.35 1.60 1.85 1.30 0.98 0.56 0.56 0.68 0.57 0.36 0.25 0.19 0.16 0.18 0.14 0.09 0.07 0.06 0.08 0.16 0.25 0.20 0.10 0.06 0.05 0.07
1.00 0.94 0.74 0.76 0.86 1.02 1.34 2.21 3.21 3.53 3.25 2.68 2.46 2.53 3.21 3.26 2.96 2.68 2.26 1.42 0.58 0.21 0.14 0.18 0.53 0.91 1.07 1.41 1.81 2.02 1.50 1.17 0.76 0.63 0.86 0.76 0.61 0.29 0.13 0.18 0.16 0.11 0.09 0.10 0.15 0.22 0.25 0.22 0.17 0.19 0.22 0.27 0.35 0.42
0.95 0.71 0.55 0.63 0.79 1.17 1.99 2.47 1.89 1.36 1.37 1.65 1.99 2.85 3.11 2.83 2.50 1.68 0.92 0.50 0.28 0.20 0.13 0.17 0.52 0.85 1.07 1.37 2.01 2.13 1.81 1.27 0.88 1.57 1.15 0.56 0.32 0.31 0.25 0.20 0.20 0.11 0.14 0.22 0.16 0.12 0.12 0.16 0.21 0.26 0.35 0.44 0.41 0.42
0.91 0.82 0.81 0.83 0.98 1.41 2.37 2.31 2.16 1.61 1.25 1.57 2.03 2.29 1.94 1.43 1.10 0.72 0.36 0.20 0.16 0.16 0.18 0.17 0.26 0.43 0.78 1.12 1.30 1.53 1.51 1.44 1.56 1.22 0.81 0.73 0.68 0.47 0.27 0.23 0.30 0.34 0.29 0.34 0.48 0.36 0.32 0.30 0.35 0.42 0.42 0.40 0.29 0.37
0.82 0.83 0.95 1.26 1.37 1.73 2.31 2.44 2.10 1.38 1.08 1.27 1.05 1.07 0.84 0.80 0.58 0.41 0.31 0.25 0.26 0.28 0.40 0.57 0.68 0.59 0.80 1.21 1.03 1.14 1.20 1.22 0.88 0.81 0.79 0.74 0.50 0.33 0.40 0.43 0.40 0.51 0.57 0.60 0.74 0.84 0.78 0.62 0.45 0.60 0.62 0.52 0.37 0.42
0.75 1.22 1.53 1.30 1.25 1.73 2.35 2.42 1.81 0.92 0.68 0.51 0.60 0.65 0.63 0.53 0.52 0.54 0.44 0.46 0.45 0.56 0.74 1.11 1.07 0.90 1.09 0.84 0.77 0.78 0.83 1.08 0.82 0.54 0.42 0.32 0.36 0.42 0.52 0.59 0.61 0.64 0.63 0.68 0.74 0.74 0.86 0.90 0.82 0.81 0.84 0.77 0.76 0.64
1.10 1.49 1.12 1.11 1.48 1.94 2.31 1.69 0.76 0.61 0.54 0.40 0.58 0.54 0.53 0.53 0.51 0.56 0.55 0.59 0.56 0.80 0.95 0.99 1.00 0.83 0.87 0.50 0.44 0.44 0.64 0.63 0.57 0.54 0.48 0.48 0.54 0.62 0.65 0.59 0.58 0.58 0.63 0.65 0.68 0.64 0.63 0.64 0.58 0.52 0.68 0.84 0.74 0.71
1.07 0.61 0.76 1.03 1.33 1.82 1.59 0.66 0.41 0.41 0.44 0.55 0.58 0.87 0.54 0.56 0.54 0.51 0.58 0.69 0.66 0.53 0.42 0.44 0.41 0.22 0.33 0.49 0.60 0.74 0.70 0.71 0.58 0.62 0.71 0.78 0.75 0.79 0.69 0.52 0.59 0.54 0.55 0.60 0.53 0.56 0.50 0.45 0.43 0.49 0.46 0.52 0.47 0.55
0.77 0.53 0.60 0.66 0.62 0.82 0.89 0.49 0.20 0.24 0.54 0.64 0.75 0.74 0.59 0.73 0.86 0.86 0.81 0.79 0.52 0.30 0.37 0.39 0.41 0.38 0.46 0.56 0.72 0.82 0.80 0.75 0.79 0.88 0.97 1.05 0.97 0.80 0.74 0.62 0.57 0.56 0.54 0.57 0.46 0.43 0.49 0.47 0.42 0.39 0.37 0.39 0.37 0.46
1.28 1.24 0.86 0.70 0.49 0.46 0.32 0.30 0.14 0.20 0.50 0.53 0.63 0.53 0.49 0.78 0.72 0.60 0.50 0.45 0.38 0.34 0.45 0.50 0.65 0.74 0.84 0.94 1.04 1.13 1.00 0.86 0.69 0.69 0.87 1.04 1.16 0.87 0.86 0.67 0.66 0.61 0.47 0.48 0.48 0.44 0.39 0.38 0.41 0.38 0.38 0.44 0.42 0.41
1.36 1.63 1.19 0.66 0.63 0.38 0.30 0.33 0.29 0.29 0.41 0.49 0.56 0.30 0.50 0.33 0.26 0.25 0.23 0.16 0.19 0.44 0.60 0.81 0.87 0.91 0.98 1.10 1.05 0.86 0.81 0.67 0.71 0.59 0.64 0.78 0.99 0.70 0.74 0.75 0.59 0.53 0.46 0.49 0.43 0.48 0.42 0.38 0.42 0.37 0.34 0.35 0.36 0.34
0.66 0.72 0.80 0.50 0.34 0.20 0.34 0.39 0.27 0.31 0.28 0.47 0.42 0.25 0.31 0.31 0.22 0.18 0.09 0.16 0.47 0.87 0.89 0.87 0.86 0.82 0.72 0.82 0.93 0.84 0.94 0.64 0.61 0.62 0.69 0.62 0.66 0.65 0.68 0.72 0.54 0.50 0.47 0.48 0.41 0.40 0.38 0.31 0.28 0.24 0.21 0.21 0.20 0.23
0.35 0.47 0.57 0.47 0.26 0.10 0.29 0.29 0.23 0.45 0.39 0.44 0.30 0.23 0.29 0.27 0.24 0.08 0.19 0.38 0.72 1.04 0.93 0.76 0.77 0.72 0.68 0.83 0.61 0.64 0.84 0.61 0.64 0.78 0.79 0.75 0.73 0.72 0.60 0.58 0.55 0.47 0.42 0.43 0.36 0.31 0.26 0.23 0.20 0.18 0.17 0.19 0.20 0.18
0.35 0.43 0.48 0.44 0.24 0.17 0.10 0.11 0.11 0.17 0.15 0.16 0.14 0.23 0.25 0.16 0.07 0.05 0.24 0.50 0.79 0.68 0.57 0.67 0.66 0.66 0.56 0.46 0.48 0.59 0.83 0.62 0.53 0.59 0.73 0.55 0.45 0.53 0.45 0.41 0.35 0.34 0.31 0.28 0.20 0.20 0.20 0.20 0.18 0.20 0.21 0.21 0.15 0.16
0.66 0.45 0.31 0.25 0.09 0.06 0.09 0.09 0.08 0.06 0.11 0.09 0.13 0.18 0.15 0.06 0.05 0.08 0.18 0.45 0.38 0.39 0.44 0.47 0.39 0.41 0.44 0.54 0.56 0.55 0.54 0.48 0.38 0.35 0.53 0.45 0.44 0.39 0.32 0.28 0.25 0.25 0.19 0.19 0.25 0.27 0.24 0.22 0.21 0.17 0.12 0.11 0.12 0.13
0.44 0.26 0.17 0.15 0.11 0.09 0.08 0.08 0.07 0.07 0.07 0.12 0.14 0.12 0.06 0.07 0.07 0.15 0.27 0.40 0.35 0.40 0.43 0.45 0.43 0.33 0.34 0.35 0.35 0.33 0.35 0.34 0.25 0.22 0.34 0.29 0.29 0.31 0.29 0.24 0.23 0.21 0.17 0.19 0.26 0.24 0.20 0.15 0.12 0.12 0.11 0.13 0.15 0.19
0.20 0.12 0.06 0.12 0.17 0.16 0.13 0.09 0.09 0.12 0.14 0.19 0.15 0.11 0.15 0.14 0.14 0.27 0.30 0.30 0.31 0.41 0.36 0.33 0.25 0.23 0.26 0.25 0.21 0.21 0.15 0.11 0.11 0.14 0.17 0.15 0.15 0.16 0.25 0.32 0.33 0.35 0.21 0.20 0.21 0.23 0.23 0.21 0.18 0.18 0.20 0.20 0.17 0.25
0.07 0.03 0.09 0.13 0.18 0.18 0.17 0.15 0.19 0.22 0.22 0.22 0.19 0.18 0.21 0.18 0.30 0.41 0.36 0.40 0.30 0.24 0.19 0.17 0.14 0.11 0.12 0.12 0.11 0.09 0.06 0.05 0.05 0.04 0.05 0.09 0.11 0.14 0.16 0.16 0.16 0.13 0.13 0.15 0.17 0.19 0.22 0.24 0.23 0.23 0.22 0.26 0.24 0.22
0.11 0.11 0.13 0.17 0.15 0.15 0.21 0.22 0.25 0.26 0.26 0.25 0.19 0.19 0.21 0.33 0.49 0.43 0.40 0.29 0.24 0.17 0.14 0.16 0.20 0.11 0.07 0.05 0.05 0.07 0.09 0.09 0.09 0.07 0.05 0.08 0.16 0.16 0.11 0.11 0.12 0.13 0.11 0.11 0.13 0.18 0.21 0.23 0.21 0.20 0.25 0.29 0.23 0.26
0.08 0.08 0.08 0.05 0.10 0.16 0.25 0.17 0.21 0.15 0.08 0.08 0.07 0.12 0.15 0.36 0.60 0.46 0.31 0.23 0.16 0.17 0.16 0.14 0.14 0.07 0.07 0.07 0.06 0.08 0.14 0.11 0.13 0.19 0.18 0.14 0.16 0.14 0.10 0.10 0.10 0.10 0.11 0.13 0.12 0.10 0.15 0.16 0.18 0.26 0.26 0.23 0.29 0.34
0.03 0.04 0.03 0.04 0.13 0.19 0.16 0.12 0.12 0.09 0.06 0.04 0.04 0.06 0.17 0.28 0.31 0.25 0.22 0.25 0.18 0.16 0.12 0.08 0.09 0.10 0.08 0.09 0.12 0.13 0.16 0.17 0.15 0.16 0.16 0.16 0.14 0.13 0.12 0.08 0.08 0.10 0.10 0.12 0.11 0.11 0.14 0.17 0.24 0.27 0.26 0.23 0.23 0.22
0.04 0.06 0.05 0.07 0.16 0.15 0.20 0.24 0.16 0.13 0.09 0.07 0.10 0.07 0.13 0.12 0.15 0.23 0.21 0.25 0.23 0.14 0.14 0.14 0.13 0.16 0.19 0.19 0.19 0.20 0.17 0.16 0.14 0.13 0.14 0.14 0.13 0.11 0.08 0.07 0.09 0.10 0.09 0.09 0.09 0.12 0.13 0.14 0.17 0.15 0.16 0.13 0.13 0.12
0.05 0.06 0.06 0.06 0.09 0.10 0.10 0.14 0.08 0.08 0.09 0.10 0.14 0.14 0.14 0.16 0.28 0.35 0.23 0.24 0.30 0.23 0.23 0.25 0.25 0.26 0.27 0.23 0.21 0.18 0.14 0.13 0.12 0.11 0.10 0.09 0.06 0.05 0.05 0.07 0.08 0.09 0.09 0.09 0.09 0.11 0.10 0.08 0.10 0.11 0.12 0.12 0.11 0.10

GFSWCAN_prec_precacc_144.txt.gz
Total_Precipitation_Accumulation
1.79 2.02 1.98 1.62 1.71 1.41 1.16 0.96 1.07 1.22 1.19 1.09 1.09 1.43 1.31 1.25 1.75 2.70 2.62 1.67 1.75 1.59 0.56 0.34 0.18 0.11 0.07 0.12 0.34 0.40 0.56 0.59 0.70 0.84 0.66 0.45 0.24 0.21 0.31 0.48 0.55 0.51 0.64 0.59 0.52 0.50 0.35 0.10 0.17 0.45 0.45 0.29 0.80 1.34
1.74 1.94 1.66 1.37 1.37 1.34 1.31 1.15 1.16 1.00 0.91 0.99 0.92 1.00 0.99 1.01 1.41 2.24 3.31 2.38 1.56 2.12 1.09 0.42 0.31 0.13 0.06 0.04 0.19 0.49 0.50 0.53 0.44 0.52 0.51 0.37 0.31 0.30 0.24 0.45 0.75 0.78 0.58 0.55 0.43 0.47 0.29 0.07 0.15 0.24 0.18 0.36 0.81 1.00
1.59 1.72 1.66 1.32 1.14 1.09 1.15 1.27 1.26 1.07 0.77 0.79 0.84 0.86 0.88 0.91 1.24 1.71 2.84 2.19 2.82 3.15 2.39 0.70 0.44 0.24 0.10 0.03 0.12 0.46 0.34 0.62 0.86 0.67 0.76 0.60 0.60 0.39 0.36 0.45 0.73 0.63 0.47 0.58 0.31 0.21 0.12 0.10 0.09 0.08 0.10 0.16 0.79 0.73
1.55 1.63 1.57 1.45 1.13 0.95 0.83 1.06 1.34 1.18 1.01 0.74 0.81 0.77 0.83 1.01 1.19 1.47 2.23 2.38 3.15 3.47 2.68 1.10 0.26 0.25 0.21 0.09 0.11 0.17 0.16 0.36 0.60 0.78 0.90 0.78 0.47 0.26 0.34 0.29 0.46 1.00 1.06 0.74 0.47 0.24 0.26 0.15 0.12 0.18 0.25 0.37 0.41 0.61
1.54 1.64 1.62 1.41 1.19 0.97 0.86 1.00 1.36 1.31 1.27 1.02 0.91 0.91 1.08 1.33 1.28 1.46 1.78 1.97 2.55 2.11 1.80 1.16 0.57 0.18 0.33 0.27 0.28 0.19 0.23 0.36 0.63 0.92 0.78 0.53 0.19 0.25 0.18 0.26 0.80 0.82 1.22 1.12 1.08 0.59 0.69 0.35 0.40 0.54 0.43 0.34 0.48 0.36
1.56 1.37 1.32 1.30 1.17 1.13 1.02 1.17 1.29 1.31 1.16 1.40 1.16 1.25 1.40 1.48 1.92 2.73 3.73 2.55 1.84 1.76 2.63 1.72 0.98 0.35 0.48 0.54 0.50 0.64 0.32 0.53 0.73 0.90 0.60 0.41 0.29 0.47 0.48 0.28 0.33 0.34 0.82 1.27 1.49 1.00 0.96 0.76 0.57 0.26 0.36 0.47 0.50 0.47
1.31 1.16 1.23 1.14 1.10 1.21 1.21 1.15 1.35 1.15 1.25 1.61 1.63 1.35 1.27 2.01 2.73 3.10 2.18 1.49 1.16 2.03 3.39 2.04 1.06 0.52 0.60 0.69 0.55 0.91 0.82 1.02 0.93 1.00 0.74 0.32 0.26 0.73 0.65 0.22 0.08 0.22 0.34 0.69 1.35 1.52 1.62 1.19 1.21 0.86 0.42 0.31 0.36 0.18
1.30 1.14 1.07 1.01 0.97 0.95 1.20 1.33 1.48 1.52 1.52 1.75 1.68 1.49 1.95 3.22 3.48 2.23 1.06 1.56 1.78 2.33 2.55 2.13 1.26 1.10 0.94 1.17 0.74 0.62 0.93 1.43 1.38 1.13 0.66 0.50 0.42 0.62 0.60 0.09 0.01 0.03 0.08 0.20 0.24 0.25 0.65 0.70 0.51 0.46 0.23 0.09 0.07 0.10
1.12 1.01 1.12 0.94 0.82 0.85 0.98 1.20 1.54 1.96 1.98 2.56 2.85 2.97 4.35 5.34 4.04 1.78 1.44 2.40 2.32 2.79 2.29 1.22 0.96 1.48 1.32 1.40 1.16 0.84 0.87 1.52 1.22 0.97 0.63 0.63 0.65 0.61 0.31 0.15 0.11 0.04 0.03 0.02 0.01 0.02 0.04 0.05 0.05 0.07 0.11 0.12 0.17 0.16
1.21 1.09 1.17 0.97 0.88 0.90 1.04 1.27 1.86 2.77 3.69 4.55 5.04 5.78 6.08 3.69 1.95 2.13 3.74 3.91 3.31 2.51 1.61 0.81 0.63 1.35 1.59 1.25 1.47 1.65 1.50 1.15 1.09 0.54 0.55 0.65 0.51 0.44 0.29 0.24 0.16 0.08 0.03 0.02 0.02 0.03 0.03 0.03 0.05 0.08 0.14 0.16 0.12 0.08
1.25 1.22 1.05 0.95 1.03 1.15 1.44 1.78 2.53 4.20 5.60 5.45 4.95 4.01 3.19 2.45 2.44 2.95 3.63 2.72 1.92 1.03 0.52 0.42 0.49 0.91 1.21 1.29 1.35 1.60 1.86 1.31 0.98 0.56 0.56 0.69 0.58 0.36 0.25 0.19 0.16 0.18 0.14 0.09 0.07 0.06 0.08 0.16 0.25 0.20 0.10 0.06 0.05 0.07
1.12 0.98 0.77 0.80 0.89 1.03 1.34 2.21 3.21 3.53 3.25 2.68 2.46 2.53 3.21 3.26 2.96 2.68 2.26 1.42 0.58 0.22 0.16 0.20 0.55 0.92 1.08 1.41 1.81 2.02 1.50 1.18 0.77 0.63 0.87 0.76 0.62 0.29 0.13 0.18 0.16 0.11 0.09 0.10 0.15 0.22 0.25 0.22 0.17 0.19 0.22 0.27 0.35 0.42
1.00 0.73 0.56 0.66 0.82 1.19 1.99 2.47 1.89 1.36 1.37 1.65 1.99 2.85 3.11 2.83 2.50 1.68 0.92 0.50 0.28 0.20 0.14 0.17 0.53 0.85 1.07 1.37 2.01 2.13 1.82 1.28 0.89 1.57 1.16 0.58 0.32 0.31 0.25 0.20 0.20 0.11 0.14 0.22 0.16 0.12 0.12 0.16 0.21 0.26 0.35 0.44 0.41 0.42
0.92 0.82 0.83 0.87 1.04 1.46 2.41 2.31 2.16 1.61 1.25 1.57 2.03 2.29 1.94 1.44 1.11 0.73 0.36 0.20 0.16 0.16 0.18 0.17 0.26 0.43 0.79 1.12 1.31 1.54 1.51 1.45 1.57 1.23 0.82 0.74 0.68 0.47 0.27 0.23 0.30 0.34 0.29 0.34 0.48 0.36 0.32 0.30 0.35 0.42 0.42 0.41 0.29 0.37
0.84 0.87 1.04 1.38 1.48 1.81 2.33 2.44 2.10 1.38 1.08 1.27 1.05 1.07 0.85 0.81 0.59 0.42 0.31 0.26 0.26 0.29 0.40 0.57 0.68 0.59 0.80 1.21 1.03 1.14 1.20 1.22 0.89 0.82 0.80 0.74 0.50 0.33 0.40 0.43 0.40 0.51 0.57 0.60 0.74 0.84 0.78 0.62 0.45 0.60 0.62 0.52 0.37 0.42
0.77 1.28 1.64 1.40 1.38 1.82 2.38 2.42 1.81 0.92 0.68 0.51 0.61 0.65 0.64 0.53 0.53 0.56 0.46 0.46 0.45 0.56 0.74 1.11 1.07 0.90 1.09 0.84 0.78 0.78 0.83 1.09 0.84 0.56 0.42 0.32 0.36 0.42 0.52 0.59 0.61 0.64 0.63 0.68 0.74 0.74 0.86 0.90 0.82 0.81 0.84 0.77 0.76 0.64
1.10 1.56 1.23 1.16 1.53 2.01 2.33 1.70 0.77 0.61 0.54 0.40 0.59 0.55 0.54 0.54 0.52 0.57 0.56 0.59 0.57 0.80 0.95 0.99 1.00 0.83 0.87 0.50 0.44 0.45 0.65 0.65 0.58 0.55 0.48 0.48 0.54 0.62 0.65 0.59 0.58 0.58 0.63 0.65 0.68 0.64 0.63 0.64 0.58 0.52 0.69 0.84 0.74 0.71
1.08 0.63 0.77 1.05 1.36 1.83 1.59 0.66 0.41 0.41 0.45 0.56 0.59 0.87 0.54 0.57 0.55 0.51 0.59 0.69 0.67 0.53 0.42 0.44 0.41 0.22 0.33 0.50 0.62 0.75 0.70 0.71 0.58 0.62 0.71 0.78 0.76 0.79 0.69 0.52 0.59 0.54 0.55 0.60 0.53 0.56 0.50 0.45 0.43 0.50 0.47 0.52 0.47 0.56
0.78 0.53 0.60 0.66 0.63 0.82 0.90 0.49 0.20 0.24 0.55 0.64 0.76 0.74 0.60 0.73 0.86 0.86 0.81 0.80 0.53 0.31 0.37 0.39 0.41 0.39 0.49 0.60 0.75 0.82 0.81 0.75 0.79 0.88 0.97 1.05 0.97 0.80 0.74 0.62 0.57 0.56 0.54 0.57 0.46 0.43 0.49 0.47 0.42 0.39 0.37 0.39 0.37 0.47
1.29 1.24 0.86 0.70 0.49 0.46 0.32 0.30 0.14 0.20 0.50 0.53 0.63 0.54 0.50 0.79 0.73 0.61 0.51 0.45 0.38 0.34 0.45 0.50 0.66 0.76 0.86 0.94 1.04 1.13 1.00 0.86 0.69 0.69 0.89 1.05 1.16 0.87 0.86 0.67 0.66 0.61 0.47 0.48 0.49 0.44 0.39 0.39 0.42 0.38 0.38 0.44 0.42 0.42
1.42 1.68 1.19 0.66 0.63 0.38 0.30 0.33 0.29 0.29 0.42 0.50 0.56 0.31 0.50 0.33 0.26 0.26 0.23 0.16 0.19 0.44 0.61 0.81 0.87 0.91 0.98 1.10 1.05 0.86 0.81 0.67 0.71 0.59 0.64 0.78 0.99 0.70 0.74 0.75 0.59 0.53 0.46 0.50 0.43 0.48 0.42 0.39 0.43 0.37 0.34 0.36 0.37 0.34
0.69 0.73 0.80 0.50 0.34 0.20 0.34 0.39 0.27 0.32 0.29 0.47 0.42 0.26 0.32 0.32 0.23 0.18 0.09 0.16 0.47 0.87 0.90 0.87 0.86 0.82 0.72 0.82 0.93 0.84 0.94 0.64 0.61 0.62 0.69 0.62 0.66 0.66 0.68 0.73 0.54 0.50 0.47 0.48 0.42 0.41 0.38 0.31 0.28 0.24 0.22 0.22 0.21 0.24
0.36 0.47 0.57 0.47 0.26 0.10 0.29 0.30 0.24 0.45 0.39 0.44 0.30 0.23 0.29 0.28 0.24 0.09 0.20 0.38 0.73 1.04 0.93 0.76 0.77 0.72 0.68 0.83 0.61 0.64 0.84 0.61 0.64 0.78 0.79 0.76 0.73 0.72 0.60 0.58 0.55 0.47 0.42 0.44 0.36 0.31 0.26 0.23 0.20 0.19 0.18 0.20 0.21 0.20
0.35 0.43 0.48 0.44 0.24 0.18 0.11 0.11 0.11 0.17 0.15 0.16 0.14 0.23 0.25 0.16 0.07 0.06 0.25 0.50 0.79 0.68 0.57 0.67 0.66 0.67 0.56 0.46 0.48 0.59 0.83 0.62 0.53 0.59 0.73 0.56 0.45 0.54 0.45 0.41 0.35 0.34 0.31 0.28 0.20 0.21 0.21 0.20 0.18 0.21 0.22 0.22 0.16 0.17
0.66 0.45 0.31 0.25 0.09 0.06 0.09 0.09 0.08 0.06 0.11 0.10 0.13 0.18 0.16 0.06 0.05 0.08 0.18 0.46 0.38 0.39 0.44 0.47 0.39 0.41 0.44 0.54 0.56 0.55 0.54 0.48 0.38 0.35 0.53 0.45 0.44 0.40 0.32 0.28 0.25 0.26 0.19 0.19 0.26 0.28 0.25 0.22 0.22 0.18 0.12 0.11 0.12 0.14
0.44 0.26 0.17 0.16 0.12 0.10 0.08 0.08 0.07 0.07 0.07 0.12 0.15 0.13 0.07 0.07 0.07 0.16 0.27 0.41 0.35 0.40 0.43 0.45 0.43 0.33 0.34 0.36 0.35 0.33 0.35 0.34 0.25 0.22 0.34 0.29 0.29 0.31 0.29 0.24 0.23 0.22 0.17 0.19 0.26 0.25 0.20 0.15 0.13 0.12 0.12 0.13 0.15 0.19
0.21 0.12 0.07 0.12 0.18 0.16 0.14 0.09 0.10 0.12 0.15 0.19 0.15 0.12 0.15 0.15 0.15 0.28 0.30 0.30 0.31 0.41 0.36 0.33 0.25 0.24 0.27 0.26 0.22 0.21 0.15 0.11 0.11 0.14 0.17 0.15 0.15 0.16 0.25 0.33 0.34 0.35 0.21 0.21 0.22 0.24 0.24 0.21 0.19 0.18 0.20 0.21 0.18 0.25
0.07 0.05 0.13 0.16 0.21 0.21 0.20 0.17 0.22 0.25 0.25 0.22 0.20 0.19 0.23 0.20 0.33 0.42 0.37 0.40 0.31 0.25 0.19 0.17 0.14 0.12 0.13 0.12 0.11 0.09 0.07 0.05 0.05 0.04 0.05 0.09 0.11 0.15 0.16 0.16 0.17 0.13 0.13 0.16 0.18 0.20 0.23 0.25 0.23 0.23 0.23 0.26 0.24 0.22
0.12 0.16 0.21 0.26 0.23 0.22 0.27 0.27 0.29 0.28 0.27 0.28 0.25 0.22 0.23 0.35 0.52 0.45 0.41 0.31 0.28 0.20 0.16 0.17 0.21 0.12 0.08 0.06 0.06 0.09 0.11 0.11 0.10 0.08 0.06 0.09 0.16 0.17 0.12 0.11 0.12 0.13 0.11 0.12 0.13 0.18 0.21 0.24 0.21 0.20 0.25 0.29 0.23 0.26
0.08 0.10 0.15 0.13 0.19 0.24 0.29 0.20 0.23 0.16 0.09 0.08 0.08 0.14 0.16 0.40 0.64 0.49 0.33 0.26 0.19 0.19 0.18 0.16 0.15 0.09 0.09 0.09 0.08 0.10 0.17 0.16 0.19 0.23 0.21 0.16 0.16 0.15 0.11 0.11 0.10 0.11 0.11 0.13 0.12 0.11 0.15 0.16 0.18 0.26 0.26 0.23 0.29 0.34
0.04 0.05 0.04 0.05 0.14 0.22 0.18 0.13 0.13 0.09 0.06 0.04 0.04 0.08 0.19 0.30 0.33 0.27 0.23 0.26 0.20 0.18 0.14 0.10 0.11 0.12 0.11 0.12 0.14 0.15 0.19 0.19 0.17 0.18 0.20 0.20 0.16 0.14 0.12 0.09 0.09 0.10 0.11 0.13 0.11 0.12 0.14 0.17 0.24 0.27 0.26 0.23 0.23 0.22
0.05 0.06 0.05 0.07 0.17 0.15 0.21 0.25 0.17 0.13 0.10 0.07 0.11 0.08 0.14 0.14 0.17 0.25 0.22 0.26 0.24 0.15 0.15 0.15 0.16 0.19 0.22 0.22 0.23 0.23 0.20 0.18 0.15 0.14 0.15 0.15 0.14 0.12 0.09 0.08 0.09 0.10 0.10 0.09 0.09 0.12 0.13 0.14 0.17 0.15 0.16 0.13 0.13 0.12
0.06 0.07 0.07 0.07 0.10 0.11 0.10 0.14 0.08 0.08 0.09 0.10 0.15 0.15 0.16 0.17 0.29 0.37 0.24 0.25 0.32 0.25 0.25 0.27 0.27 0.28 0.29 0.25 0.24 0.21 0.16 0.14 0.12 0.11 0.10 0.09 0.06 0.05 0.06 0.07 0.09 0.10 0.10 0.10 0.10 0.11 0.10 0.08 0.10 0.11 0.12 0.12 0.11 0.10

GFSWCAN_prec_precacc_147.txt.gz
Total_Precipitation_Accumulation
1.80 2.03 2.01 1.70 1.81 1.54 1.23 0.97 1.08 1.23 1.20 1.10 1.13 1.58 1.54 1.52 1.93 2.94 2.97 1.75 1.76 1.61 0.57 0.35 0.18 0.12 0.08 0.14 0.37 0.43 0.60 0.65 0.87 1.02 0.68 0.46 0.24 0.21 0.31 0.48 0.55 0.51 0.64 0.59 0.52 0.53 0.36 0.10 0.17 0.45 0.45 0.29 0.80 1.34
1.74 1.96 1.72 1.47 1.52 1.45 1.33 1.18 1.18 1.02 0.93 1.01 1.03 1.20 1.33 1.28 1.60 2.57 3.71 2.48 1.58 2.16 1.10 0.44 0.33 0.15 0.07 0.05 0.20 0.49 0.51 0.55 0.47 0.57 0.52 0.37 0.31 0.30 0.24 0.45 0.75 0.78 0.58 0.55 0.43 0.47 0.29 0.07 0.15 0.24 0.18 0.36 0.81 1.00
1.59 1.75 1.78 1.47 1.24 1.11 1.20 1.29 1.28 1.09 0.79 0.82 1.00 1.11 1.14 0.99 1.32 1.96 3.23 2.29 2.87 3.24 2.45 0.72 0.46 0.26 0.13 0.07 0.14 0.47 0.35 0.62 0.86 0.67 0.76 0.60 0.60 0.40 0.37 0.45 0.73 0.63 0.47 0.59 0.32 0.22 0.12 0.10 0.09 0.08 0.10 0.16 0.79 0.73
1.56 1.71 1.69 1.58 1.17 0.99 0.85 1.07 1.37 1.20 1.03 0.80 0.94 0.97 1.03 1.09 1.21 1.57 2.39 2.43 3.24 3.63 2.81 1.21 0.29 0.27 0.23 0.11 0.14 0.17 0.17 0.37 0.60 0.79 0.90 0.80 0.50 0.29 0.36 0.31 0.47 1.00 1.06 0.75 0.49 0.25 0.26 0.15 0.12 0.18 0.25 0.37 0.41 0.61
1.58 1.77 1.75 1.47 1.20 0.99 0.86 1.00 1.38 1.35 1.33 1.17 1.13 1.13 1.26 1.46 1.33 1.50 1.85 2.03 2.58 2.15 1.92 1.43 0.68 0.24 0.35 0.29 0.30 0.22 0.27 0.41 0.67 0.95 0.82 0.58 0.22 0.26 0.19 0.30 0.83 0.82 1.22 1.14 1.12 0.59 0.69 0.35 0.40 0.54 0.43 0.34 0.48 0.36
1.66 1.50 1.40 1.31 1.18 1.14 1.02 1.18 1.32 1.39 1.26 1.61 1.43 1.55 1.63 1.61 1.98 2.79 3.91 2.71 1.88 1.77 2.67 1.92 1.20 0.51 0.56 0.60 0.59 0.70 0.39 0.59 0.78 0.95 0.63 0.41 0.29 0.47 0.49 0.34 0.39 0.34 0.82 1.27 1.49 1.00 0.96 0.76 0.57 0.26 0.36 0.47 0.50 0.47
1.44 1.30 1.27 1.15 1.12 1.21 1.22 1.17 1.36 1.17 1.33 1.72 1.72 1.45 1.40 2.12 2.80 3.14 2.29 1.62 1.22 2.06 3.42 2.14 1.28 0.76 0.78 0.80 0.62 0.97 0.88 1.06 0.94 1.01 0.74 0.32 0.26 0.73 0.65 0.23 0.09 0.22 0.34 0.69 1.35 1.52 1.62 1.19 1.21 0.86 0.42 0.31 0.36 0.18
1.41 1.21 1.10 1.03 0.98 0.96 1.21 1.33 1.48 1.52 1.53 1.77 1.70 1.53 1.99 3.24 3.50 2.26 1.07 1.58 1.81 2.35 2.56 2.18 1.49 1.38 1.08 1.25 0.81 0.67 0.96 1.43 1.38 1.13 0.66 0.50 0.42 0.62 0.60 0.09 0.01 0.03 0.08 0.20 0.24 0.25 0.65 0.70 0.51 0.46 0.23 0.09 0.07 0.10
1.20 1.04 1.13 0.95 0.83 0.86 0.98 1.20 1.54 1.96 1.99 2.56 2.85 2.97 4.36 5.35 4.06 1.81 1.45 2.40 2.32 2.79 2.30 1.23 0.99 1.59 1.35 1.41 1.17 0.85 0.87 1.52 1.22 0.97 0.63 0.63 0.65 0.61 0.31 0.15 0.11 0.04 0.03 0.02 0.01 0.02 0.04 0.05 0.05 0.07 0.11 0.12 0.17 0.16
1.27 1.10 1.18 0.98 0.89 0.91 1.05 1.27 1.86 2.77 3.70 4.55 5.05 5.78 6.10 3.69 1.95 2.13 3.74 3.91 3.32 2.51 1.61 0.82 0.63 1.37 1.59 1.25 1.47 1.65 1.50 1.15 1.10 0.54 0.55 0.65 0.51 0.44 0.29 0.24 0.16 0.08 0.03 0.02 0.02 0.03 0.03 0.03 0.05 0.08 0.14 0.16 0.12 0.08
1.27 1.23 1.07 0.96 1.04 1.16 1.44 1.78 2.53 4.20 5.61 5.45 4.95 4.01 3.19 2.45 2.44 2.95 3.63 2.72 1.92 1.06 0.54 0.43 0.49 0.91 1.21 1.29 1.35 1.60 1.86 1.31 0.98 0.56 0.56 0.69 0.58 0.36 0.25 0.19 0.16 0.18 0.14 0.09 0.07 0.06 0.08 0.16 0.25 0.20 0.10 0.06 0.05 0.07
1.16 1.00 0.78 0.81 0.90 1.03 1.34 2.21 3.21 3.53 3.25 2.68 2.46 2.53 3.21 3.26 2.96 2.68 2.26 1.42 0.58 0.26 0.19 0.20 0.55 0.92 1.08 1.41 1.81 2.02 1.50 1.18 0.77 0.63 0.87 0.77 0.63 0.29 0.13 0.18 0.16 0.11 0.09 0.10 0.15 0.22 0.25 0.22 0.17 0.19 0.22 0.27 0.35 0.42
1.03 0.74 0.57 0.68 0.83 1.19 1.99 2.47 1.89 1.36 1.37 1.65 1.99 2.85 3.11 2.83 2.50 1.68 0.92 0.50 0.28 0.21 0.15 0.17 0.53 0.85 1.07 1.37 2.01 2.13 1.82 1.28 0.89 1.57 1.16 0.58 0.32 0.31 0.25 0.20 0.20 0.11 0.14 0.22 0.16 0.12 0.12 0.16 0.21 0.26 0.35 0.44 0.41 0.42
0.93 0.83 0.84 0.87 1.04 1.46 2.41 2.31 2.16 1.61 1.25 1.57 2.03 2.29 1.94 1.44 1.13 0.74 0.36 0.20 0.16 0.16 0.18 0.17 0.26 0.43 0.79 1.12 1.31 1.54 1.51 1.45 1.57 1.23 0.82 0.74 0.68 0.47 0.27 0.23 0.30 0.34 0.29 0.34 0.48 0.36 0.32 0.30 0.35 0.42 0.42 0.41 0.29 0.37
0.86 0.89 1.05 1.38 1.48 1.81 2.33 2.44 2.10 1.38 1.08 1.27 1.05 1.07 0.87 0.83 0.61 0.42 0.31 0.26 0.26 0.29 0.40 0.57 0.68 0.59 0.80 1.21 1.03 1.14 1.20 1.22 0.89 0.83 0.80 0.74 0.50 0.33 0.40 0.43 0.40 0.51 0.57 0.60 0.74 0.84 0.78 0.62 0.45 0.60 0.62 0.52 0.37 0.42
0.80 1.32 1.65 1.40 1.38 1.82 2.38 2.42 1.81 0.92 0.68 0.51 0.62 0.68 0.67 0.55 0.55 0.57 0.47 0.47 0.46 0.56 0.74 1.11 1.07 0.90 1.09 0.84 0.78 0.78 0.83 1.09 0.85 0.56 0.42 0.32 0.36 0.42 0.52 0.59 0.61 0.64 0.63 0.68 0.74 0.74 0.86 0.90 0.82 0.81 0.84 0.77 0.76 0.64
1.10 1.57 1.25 1.17 1.53 2.01 2.33 1.70 0.77 0.61 0.54 0.41 0.61 0.59 0.57 0.56 0.54 0.57 0.57 0.60 0.57 0.80 0.95 0.99 1.00 0.83 0.87 0.50 0.44 0.45 0.66 0.65 0.58 0.55 0.48 0.48 0.54 0.62 0.65 0.59 0.58 0.58 0.63 0.65 0.68 0.64 0.63 0.64 0.58 0.52 0.69 0.84 0.74 0.71
1.08 0.63 0.78 1.05 1.36 1.83 1.59 0.66 0.41 0.41 0.45 0.57 0.60 0.88 0.54 0.57 0.55 0.51 0.59 0.69 0.67 0.53 0.42 0.44 0.41 0.22 0.33 0.50 0.62 0.75 0.70 0.71 0.58 0.62 0.71 0.78 0.76 0.79 0.69 0.52 0.59 0.54 0.55 0.60 0.53 0.56 0.50 0.45 0.43 0.50 0.47 0.52 0.47 0.56
0.78 0.53 0.60 0.66 0.63 0.82 0.90 0.49 0.20 0.24 0.55 0.65 0.76 0.74 0.60 0.73 0.86 0.86 0.81 0.80 0.53 0.31 0.37 0.39 0.41 0.39 0.50 0.60 0.75 0.82 0.81 0.75 0.80 0.89 0.97 1.05 0.97 0.80 0.74 0.62 0.57 0.56 0.54 0.57 0.46 0.43 0.49 0.47 0.42 0.39 0.37 0.39 0.37 0.47
1.29 1.24 0.86 0.70 0.49 0.46 0.32 0.30 0.14 0.20 0.50 0.53 0.63 0.54 0.50 0.79 0.73 0.61 0.51 0.45 0.38 0.34 0.45 0.50 0.66 0.76 0.86 0.94 1.04 1.13 1.00 0.86 0.69 0.70 0.90 1.06 1.16 0.87 0.86 0.67 0.66 0.61 0.47 0.48 0.49 0.44 0.39 0.39 0.42 0.38 0.38 0.44 0.42 0.42
1.42 1.68 1.19 0.66 0.63 0.38 0.30 0.33 0.29 0.29 0.42 0.50 0.56 0.31 0.50 0.33 0.26 0.26 0.23 0.16 0.19 0.44 0.61 0.82 0.87 0.91 0.98 1.10 1.05 0.86 0.81 0.67 0.71 0.59 0.64 0.79 0.99 0.70 0.74 0.75 0.59 0.53 0.46 0.50 0.43 0.48 0.42 0.39 0.43 0.37 0.34 0.36 0.37 0.34
0.69 0.73 0.80 0.50 0.34 0.20 0.34 0.39 0.27 0.32 0.29 0.47 0.42 0.26 0.32 0.32 0.23 0.18 0.09 0.16 0.47 0.87 0.90 0.87 0.86 0.82 0.72 0.82 0.93 0.84 0.94 0.64 0.61 0.62 0.69 0.62 0.66 0.66 0.68 0.73 0.54 0.50 0.47 0.48 0.42 0.41 0.38 0.31 0.28 0.24 0.22 0.22 0.21 0.24
0.36 0.47 0.57 0.47 0.26 0.10 0.29 0.30 0.24 0.45 0.39 0.45 0.30 0.23 0.29 0.28 0.24 0.09 0.20 0.38 0.73 1.04 0.93 0.76 0.77 0.72 0.68 0.83 0.61 0.64 0.84 0.61 0.64 0.78 0.79 0.76 0.73 0.72 0.60 0.58 0.55 0.47 0.42 0.44 0.36 0.31 0.26 0.23 0.20 0.19 0.18 0.20 0.21 0.20
0.35 0.43 0.48 0.44 0.24 0.18 0.11 0.11 0.11 0.17 0.15 0.16 0.14 0.23 0.25 0.16 0.07 0.06 0.25 0.50 0.79 0.68 0.57 0.67 0.66 0.67 0.56 0.46 0.48 0.59 0.83 0.62 0.53 0.59 0.73 0.56 0.45 0.54 0.45 0.41 0.35 0.34 0.31 0.28 0.20 0.21 0.21 0.20 0.18 0.21 0.22 0.22 0.16 0.17
0.66 0.45 0.32 0.25 0.10 0.07 0.10 0.09 0.08 0.06 0.11 0.10 0.13 0.18 0.16 0.06 0.05 0.08 0.18 0.47 0.39 0.40 0.44 0.47 0.39 0.41 0.44 0.54 0.56 0.55 0.54 0.48 0.38 0.35 0.53 0.45 0.44 0.40 0.32 0.28 0.25 0.26 0.19 0.19 0.26 0.28 0.25 0.22 0.22 0.18 0.12 0.11 0.12 0.14
0.44 0.26 0.17 0.16 0.12 0.10 0.08 0.08 0.07 0.07 0.07 0.12 0.15 0.13 0.07 0.07 0.07 0.16 0.29 0.44 0.36 0.41 0.43 0.45 0.43 0.33 0.34 0.36 0.35 0.33 0.35 0.34 0.25 0.22 0.34 0.29 0.29 0.31 0.29 0.24 0.23 0.22 0.17 0.19 0.26 0.25 0.20 0.15 0.13 0.12 0.12 0.13 0.15 0.19
0.21 0.13 0.07 0.12 0.18 0.16 0.14 0.09 0.10 0.12 0.15 0.19 0.15 0.12 0.15 0.15 0.16 0.30 0.31 0.31 0.32 0.42 0.36 0.33 0.26 0.24 0.27 0.27 0.23 0.21 0.15 0.11 0.11 0.14 0.17 0.15 0.15 0.16 0.25 0.33 0.34 0.35 0.21 0.21 0.22 0.24 0.24 0.21 0.19 0.18 0.20 0.21 0.18 0.25
0.07 0.05 0.14 0.16 0.21 0.21 0.21 0.18 0.22 0.26 0.25 0.22 0.20 0.19 0.23 0.21 0.35 0.44 0.38 0.41 0.31 0.26 0.19 0.17 0.14 0.12 0.15 0.13 0.12 0.10 0.07 0.06 0.07 0.04 0.05 0.09 0.11 0.15 0.16 0.16 0.17 0.13 0.13 0.16 0.18 0.20 0.23 0.25 0.23 0.23 0.23 0.26 0.24 0.22
0.12 0.17 0.22 0.27 0.23 0.22 0.28 0.29 0.30 0.28 0.27 0.29 0.27 0.23 0.24 0.36 0.54 0.47 0.43 0.34 0.31 0.24 0.20 0.19 0.22 0.12 0.09 0.06 0.07 0.09 0.12 0.14 0.12 0.11 0.08 0.11 0.18 0.19 0.12 0.11 0.12 0.13 0.11 0.12 0.13 0.18 0.21 0.24 0.21 0.20 0.25 0.29 0.23 0.26
0.09 0.11 0.19 0.16 0.22 0.26 0.31 0.21 0.25 0.18 0.11 0.10 0.10 0.15 0.18 0.43 0.69 0.53 0.37 0.30 0.22 0.22 0.21 0.17 0.16 0.11 0.10 0.09 0.09 0.11 0.18 0.18 0.22 0.25 0.23 0.17 0.17 0.16 0.12 0.13 0.12 0.11 0.12 0.13 0.12 0.11 0.15 0.16 0.18 0.26 0.26 0.24 0.29 0.34
0.04 0.05 0.05 0.07 0.18 0.26 0.23 0.18 0.16 0.11 0.07 0.04 0.05 0.08 0.20 0.31 0.36 0.29 0.24 0.29 0.22 0.19 0.15 0.12 0.13 0.13 0.12 0.15 0.17 0.16 0.20 0.20 0.17 0.19 0.21 0.21 0.17 0.14 0.13 0.11 0.10 0.11 0.11 0.13 0.11 0.12 0.14 0.17 0.24 0.27 0.26 0.23 0.23 0.22
0.05 0.06 0.06 0.08 0.17 0.16 0.21 0.26 0.17 0.14 0.10 0.08 0.11 0.09 0.15 0.15 0.18 0.27 0.23 0.26 0.24 0.15 0.16 0.16 0.16 0.20 0.22 0.23 0.26 0.25 0.22 0.19 0.16 0.16 0.16 0.16 0.16 0.13 0.09 0.09 0.10 0.11 0.10 0.09 0.09 0.12 0.13 0.14 0.17 0.15 0.16 0.13 0.13 0.12
0.06 0.07 0.07 0.07 0.10 0.11 0.10 0.15 0.09 0.08 0.10 0.11 0.15 0.16 0.16 0.18 0.30 0.38 0.24 0.25 0.33 0.26 0.25 0.28 0.28 0.29 0.30 0.27 0.27 0.22 0.17 0.15 0.13 0.13 0.12 0.10 0.07 0.06 0.06 0.08 0.09 0.10 0.10 0.10 0.10 0.11 0.10 0.08 0.10 0.11 0.12 0.12 0.11 0.10

GFSWCAN_prec_precacc_153.txt.gz
Total_Precipitation_Accumulation
1.81 2.04 2.03 1.72 1.83 1.57 1.30 1.04 1.15 1.33 1.30 1.23 1.28 1.70 1.64 1.63 2.08 3.18 3.15 1.81 1.87 1.78 0.60 0.35 0.18 0.13 0.14 0.16 0.38 0.44 0.63 0.71 1.00 1.18 0.84 0.58 0.27 0.21 0.31 0.48 0.55 0.53 0.68 0.64 0.57 0.58 0.37 0.10 0.17 0.45 0.45 0.29 0.80 1.34
1.75 1.97 1.74 1.48 1.55 1.50 1.40 1.26 1.25 1.08 1.01 1.09 1.11 1.29 1.44 1.41 1.77 2.85 4.22 2.73 1.63 2.23 1.15 0.45 0.33 0.15 0.07 0.08 0.25 0.53 0.53 0.55 0.48 0.64 0.60 0.44 0.42 0.33 0.24 0.45 0.75 0.78 0.58 0.55 0.44 0.48 0.29 0.07 0.15 0.24 0.18 0.36 0.81 1.00
1.61 1.75 1.79 1.51 1.31 1.19 1.29 1.38 1.34 1.13 0.82 0.86 1.05 1.19 1.25 1.10 1.47 2.28 3.68 2.60 3.03 3.42 2.57 0.74 0.47 0.26 0.13 0.07 0.16 0.60 0.43 0.65 0.90 0.71 0.81 0.67 0.66 0.43 0.38 0.45 0.73 0.63 0.47 0.59 0.32 0.22 0.12 0.10 0.09 0.08 0.10 0.16 0.79 0.73
1.56 1.72 1.74 1.69 1.29 1.08 0.90 1.11 1.45 1.36 1.21 0.94 1.03 1.07 1.17 1.24 1.36 1.87 3.08 2.78 3.49 3.88 2.98 1.23 0.30 0.28 0.23 0.12 0.15 0.19 0.21 0.42 0.67 0.86 0.96 0.83 0.54 0.32 0.39 0.31 0.47 1.00 1.07 0.76 0.53 0.34 0.28 0.15 0.12 0.18 0.25 0.38 0.41 0.61
1.58 1.80 1.85 1.60 1.32 1.04 0.89 1.10 1.59 1.64 1.68 1.47 1.30 1.30 1.39 1.59 1.53 1.88 2.45 2.26 2.79 2.31 1.99 1.46 0.69 0.25 0.37 0.34 0.33 0.23 0.28 0.44 0.70 1.01 0.91 0.62 0.23 0.29 0.21 0.31 0.83 0.82 1.23 1.15 1.20 0.62 0.70 0.36 0.40 0.58 0.48 0.35 0.48 0.36
1.69 1.60 1.53 1.43 1.24 1.16 1.07 1.35 1.56 1.68 1.59 1.91 1.67 1.85 1.81 1.73 2.20 3.50 5.00 3.10 2.02 1.85 2.70 2.01 1.30 0.55 0.58 0.64 0.71 0.79 0.45 0.62 0.82 0.99 0.68 0.47 0.31 0.51 0.54 0.42 0.41 0.34 0.82 1.27 1.51 1.01 0.97 0.78 0.60 0.26 0.36 0.47 0.50 0.47
1.51 1.48 1.41 1.22 1.13 1.25 1.35 1.32 1.55 1.44 1.67 1.98 1.95 1.65 1.58 2.31 3.14 3.69 2.65 1.94 1.32 2.20 3.52 2.25 1.53 1.04 0.96 0.99 0.84 1.29 1.19 1.24 1.04 1.09 0.78 0.34 0.32 0.78 0.71 0.28 0.12 0.22 0.34 0.69 1.35 1.53 1.65 1.21 1.21 0.86 0.42 0.31 0.36 0.18
1.52 1.36 1.19 1.05 1.00 1.01 1.31 1.47 1.61 1.70 1.82 2.08 1.94 1.80 2.18 3.36 3.67 2.38 1.10 1.60 1.84 2.54 2.71 2.27 1.73 1.75 1.43 1.55 1.15 0.93 1.28 1.67 1.57 1.25 0.72 0.55 0.49 0.69 0.65 0.10 0.01 0.03 0.08 0.20 0.24 0.26 0.66 0.70 0.51 0.46 0.23 0.09 0.07 0.10
1.34 1.14 1.18 0.96 0.84 0.88 1.02 1.27 1.60 2.09 2.17 2.75 3.04 3.08 4.43 5.47 4.27 2.01 1.52 2.43 2.35 3.08 2.47 1.30 1.09 1.86 1.59 1.58 1.38 1.00 0.97 1.69 1.39 1.12 0.71 0.69 0.73 0.64 0.31 0.15 0.11 0.04 0.03 0.02 0.01 0.02 0.04 0.05 0.05 0.07 0.11 0.12 0.17 0.16
1.42 1.13 1.19 0.98 0.90 0.93 1.05 1.29 1.88 2.79 3.76 4.64 5.09 5.84 6.32 3.91 2.11 2.25 3.82 4.03 3.50 2.73 1.67 0.84 0.64 1.51 1.72 1.34 1.51 1.69 1.54 1.20 1.17 0.62 0.57 0.67 0.53 0.44 0.29 0.24 0.16 0.08 0.03 0.02 0.02 0.03 0.03 0.03 0.05 0.08 0.14 0.16 0.12 0.08
1.30 1.24 1.08 0.97 1.04 1.16 1.44 1.78 2.53 4.20 5.61 5.45 4.95 4.04 3.26 2.49 2.46 2.98 3.73 2.83 2.04 1.21 0.68 0.51 0.50 0.92 1.22 1.29 1.35 1.61 1.86 1.31 1.00 0.57 0.56 0.69 0.59 0.36 0.25 0.19 0.16 0.18 0.14 0.09 0.07 0.06 0.08 0.16 0.25 0.20 0.10 0.06 0.05 0.07
1.20 1.02 0.79 0.82 0.90 1.03 1.34 2.21 3.21 3.53 3.25 2.68 2.46 2.53 3.21 3.26 2.96 2.69 2.30 1.47 0.63 0.37 0.31 0.29 0.60 0.92 1.08 1.41 1.82 2.02 1.50 1.18 0.77 0.63 0.87 0.78 0.64 0.29 0.13 0.18 0.16 0.11 0.09 0.10 0.15 0.22 0.25 0.22 0.17 0.19 0.22 0.27 0.35 0.42
1.09 0.76 0.59 0.68 0.83 1.19 1.99 2.47 1.89 1.36 1.37 1.65 1.99 2.85 3.11 2.83 2.50 1.68 0.92 0.52 0.30 0.22 0.18 0.17 0.54 0.86 1.08 1.37 2.01 2.13 1.82 1.28 0.89 1.57 1.16 0.59 0.33 0.31 0.25 0.20 0.20 0.11 0.14 0.22 0.16 0.12 0.12 0.16 0.21 0.26 0.35 0.44 0.41 0.42
0.98 0.87 0.85 0.87 1.04 1.46 2.41 2.31 2.16 1.61 1.25 1.57 2.03 2.29 1.94 1.44 1.14 0.74 0.36 0.20 0.16 0.16 0.18 0.17 0.26 0.43 0.79 1.12 1.31 1.54 1.51 1.45 1.57 1.23 0.82 0.75 0.68 0.47 0.27 0.23 0.30 0.34 0.29 0.34 0.48 0.36 0.32 0.30 0.35 0.42 0.42 0.41 0.29 0.37
0.89 0.90 1.05 1.38 1.48 1.81 2.33 2.44 2.10 1.38 1.08 1.27 1.05 1.09 0.91 0.87 0.62 0.43 0.31 0.26 0.26 0.29 0.40 0.57 0.68 0.59 0.80 1.21 1.03 1.14 1.20 1.22 0.89 0.83 0.80 0.74 0.50 0.33 0.40 0.43 0.40 0.51 0.57 0.60 0.74 0.84 0.78 0.62 0.45 0.61 0.62 0.52 0.37 0.42
0.80 1.32 1.65 1.40 1.38 1.82 2.38 2.42 1.81 0.92 0.68 0.51 0.67 0.80 0.77 0.61 0.60 0.57 0.47 0.47 0.46 0.56 0.74 1.11 1.07 0.90 1.09 0.84 0.78 0.78 0.83 1.09 0.85 0.56 0.42 0.32 0.36 0.42 0.52 0.59 0.61 0.64 0.63 0.68 0.74 0.74 0.86 0.90 0.82 0.81 0.84 0.77 0.76 0.64
1.10 1.57 1.25 1.17 1.53 2.01 2.33 1.70 0.77 0.61 0.54 0.47 0.77 0.71 0.65 0.63 0.59 0.59 0.57 0.60 0.57 0.80 0.95 0.99 1.00 0.83 0.87 0.50 0.44 0.45 0.66 0.65 0.58 0.55 0.48 0.48 0.54 0.62 0.65 0.59 0.58 0.58 0.63 0.65 0.68 0.64 0.63 0.64 0.58 0.52 0.69 0.84 0.74 0.71
1.08 0.63 0.78 1.05 1.36 1.83 1.59 0.66 0.41 0.41 0.49 0.68 0.72 0.93 0.54 0.58 0.55 0.51 0.59 0.69 0.67 0.53 0.42 0.44 0.41 0.22 0.33 0.50 0.62 0.76 0.71 0.72 0.58 0.62 0.71 0.78 0.76 0.79 0.69 0.52 0.59 0.54 0.55 0.60 0.53 0.56 0.50 0.45 0.43 0.50 0.47 0.52 0.47 0.56
0.78 0.53 0.60 0.66 0.63 0.82 0.90 0.49 0.20 0.27 0.62 0.69 0.78 0.74 0.60 0.73 0.86 0.86 0.81 0.80 0.53 0.31 0.37 0.39 0.41 0.39 0.50 0.61 0.76 0.83 0.81 0.75 0.80 0.89 0.98 1.05 0.97 0.80 0.74 0.62 0.57 0.56 0.54 0.57 0.46 0.43 0.49 0.47 0.42 0.39 0.37 0.39 0.37 0.47
1.29 1.24 0.86 0.70 0.49 0.46 0.32 0.30 0.14 0.20 0.51 0.54 0.63 0.54 0.50 0.79 0.73 0.61 0.51 0.45 0.38 0.34 0.45 0.51 0.66 0.77 0.86 0.94 1.04 1.13 1.00 0.86 0.69 0.71 0.91 1.07 1.16 0.87 0.86 0.67 0.66 0.61 0.47 0.48 0.49 0.44 0.39 0.39 0.42 0.38 0.38 0.44 0.42 0.42
1.42 1.68 1.19 0.66 0.63 0.38 0.30 0.33 0.29 0.29 0.42 0.50 0.56 0.31 0.50 0.33 0.26 0.26 0.23 0.16 0.19 0.44 0.62 0.82 0.88 0.92 0.98 1.10 1.05 0.86 0.81 0.67 0.71 0.59 0.65 0.80 1.00 0.70 0.74 0.75 0.59 0.53 0.46 0.50 0.43 0.48 0.42 0.39 0.43 0.37 0.34 0.36 0.37 0.34
0.69 0.73 0.80 0.50 0.34 0.20 0.34 0.39 0.27 0.32 0.29 0.47 0.42 0.26 0.32 0.32 0.23 0.18 0.09 0.16 0.48 0.89 0.91 0.88 0.86 0.82 0.72 0.82 0.93 0.84 0.94 0.64 0.61 0.62 0.69 0.62 0.67 0.66 0.69 0.73 0.54 0.50 0.47 0.48 0.42 0.41 0.38 0.31 0.28 0.24 0.22 0.22 0.21 0.24
0.36 0.47 0.57 0.47 0.26 0.10 0.29 0.30 0.24 0.45 0.39 0.45 0.30 0.23 0.29 0.28 0.24 0.09 0.20 0.39 0.75 1.07 0.94 0.76 0.78 0.72 0.69 0.83 0.61 0.64 0.84 0.61 0.64 0.78 0.79 0.76 0.73 0.72 0.61 0.58 0.55 0.47 0.42 0.44 0.36 0.31 0.26 0.23 0.20 0.19 0.18 0.20 0.21 0.20
0.35 0.43 0.48 0.44 0.24 0.18 0.11 0.11 0.11 0.17 0.15 0.16 0.14 0.23 0.25 0.16 0.07 0.06 0.25 0.52 0.82 0.69 0.57 0.67 0.66 0.67 0.57 0.46 0.48 0.60 0.83 0.62 0.53 0.59 0.73 0.56 0.45 0.54 0.45 0.41 0.35 0.34 0.31 0.28 0.20 0.21 0.21 0.20 0.18 0.21 0.22 0.22 0.17 0.17
0.66 0.45 0.32 0.25 0.10 0.07 0.10 0.09 0.08 0.06 0.11 0.10 0.13 0.18 0.16 0.06 0.05 0.09 0.19 0.51 0.42 0.41 0.44 0.47 0.40 0.41 0.45 0.54 0.57 0.55 0.54 0.48 0.38 0.35 0.53 0.45 0.44 0.40 0.33 0.28 0.25 0.26 0.19 0.19 0.26 0.28 0.25 0.22 0.22 0.18 0.12 0.11 0.13 0.14
0.44 0.27 0.17 0.16 0.12 0.10 0.08 0.08 0.07 0.07 0.07 0.12 0.15 0.13 0.07 0.07 0.07 0.17 0.31 0.48 0.39 0.43 0.44 0.46 0.43 0.34 0.34 0.37 0.36 0.33 0.35 0.34 0.25 0.22 0.34 0.29 0.29 0.32 0.29 0.25 0.24 0.22 0.17 0.19 0.26 0.25 0.20 0.15 0.13 0.12 0.12 0.13 0.15 0.19
0.21 0.13 0.07 0.12 0.18 0.16 0.14 0.10 0.10 0.12 0.15 0.19 0.16 0.12 0.15 0.15 0.17 0.32 0.34 0.35 0.34 0.43 0.37 0.34 0.27 0.25 0.28 0.28 0.25 0.22 0.16 0.12 0.12 0.14 0.17 0.15 0.15 0.16 0.25 0.33 0.34 0.35 0.21 0.21 0.22 0.24 0.24 0.21 0.19 0.18 0.20 0.21 0.18 0.25
0.07 0.05 0.15 0.16 0.21 0.21 0.21 0.18 0.22 0.26 0.25 0.22 0.20 0.20 0.24 0.22 0.37 0.47 0.41 0.43 0.33 0.27 0.20 0.18 0.16 0.15 0.16 0.15 0.15 0.13 0.10 0.09 0.10 0.07 0.08 0.12 0.13 0.15 0.16 0.16 0.17 0.13 0.13 0.16 0.18 0.20 0.23 0.25 0.23 0.23 0.23 0.26 0.24 0.22
0.13 0.17 0.23 0.28 0.24 0.23 0.28 0.29 0.31 0.29 0.28 0.29 0.28 0.24 0.25 0.37 0.57 0.50 0.46 0.38 0.36 0.27 0.22 0.21 0.23 0.13 0.09 0.07 0.07 0.10 0.15 0.16 0.15 0.15 0.11 0.13 0.20 0.21 0.13 0.12 0.12 0.13 0.11 0.12 0.13 0.18 0.21 0.24 0.21 0.20 0.25 0.29 0.23 0.26
0.09 0.12 0.21 0.17 0.23 0.26 0.31 0.22 0.26 0.20 0.13 0.12 0.10 0.16 0.19 0.46 0.74 0.58 0.41 0.32 0.25 0.25 0.26 0.21 0.19 0.13 0.12 0.11 0.09 0.11 0.19 0.20 0.24 0.28 0.25 0.20 0.19 0.18 0.14 0.14 0.12 0.12 0.12 0.14 0.13 0.12 0.17 0.17 0.19 0.26 0.26 0.24 0.30 0.35
0.04 0.06 0.07 0.08 0.19 0.28 0.26 0.22 0.20 0.16 0.11 0.08 0.06 0.09 0.21 0.33 0.39 0.31 0.26 0.32 0.25 0.22 0.17 0.14 0.15 0.15 0.14 0.17 0.20 0.19 0.24 0.22 0.19 0.21 0.24 0.25 0.20 0.16 0.15 0.13 0.12 0.15 0.16 0.17 0.15 0.14 0.16 0.19 0.25 0.27 0.26 0.23 0.24 0.22
0.05 0.07 0.06 0.09 0.20 0.19 0.26 0.31 0.21 0.17 0.14 0.10 0.14 0.10 0.16 0.16 0.20 0.29 0.25 0.28 0.25 0.16 0.16 0.17 0.18 0.21 0.24 0.26 0.31 0.31 0.26 0.22 0.18 0.18 0.18 0.18 0.21 0.19 0.15 0.12 0.13 0.15 0.16 0.15 0.14 0.16 0.15 0.16 0.19 0.17 0.16 0.14 0.14 0.13
0.06 0.07 0.07 0.07 0.11 0.13 0.12 0.17 0.11 0.11 0.12 0.13 0.17 0.17 0.18 0.19 0.31 0.40 0.25 0.26 0.34 0.26 0.26 0.29 0.28 0.30 0.31 0.29 0.30 0.25 0.18 0.16 0.15 0.16 0.16 0.14 0.12 0.12 0.12 0.12 0.13 0.14 0.14 0.13 0.13 0.14 0.12 0.11 0.12 0.13 0.14 0.13 0.12 0.10